GPS BIIR-13

Last updated on Thu Dec 18 2025 00:02:35 GMT+0000 (Coordinated Universal Time)

1 28474U 04045A 25351.57526990 -.00000088 00000+0 00000+0 0 9992 2 28474 55.2383 332.2112 0170844 309.4586 234.4084 2.00569852154783
UTC large
Height (km)
Speed (km/s)
/
Latitude / Longitude
Inclination (degrees)
Orbital Period (minutes)
Azimuth
Elevation
Range (km)
Doppler Factor

Next 0 passes for location: London (51.5072 / 0.1276)

Sorry there are no passes over London.